Flag for United Kingdom Past Weather in Lerwick (Shetland Islands), Scotland, United Kingdom — Yesterday and Last 2 Weeks

Now
53 °F

Low clouds.


Feels Like: 49 °F
Forecast: 52 / 58 °F
Wind: 12 mph from West

Location: Lerwick

Current Time: Jul 27, 2016 at 10:06:56 PM

Latest Report: Jul 27, 2016 at 9:00 PM


Visibility: 19 mi

Pressure: 29.67 "Hg

Humidity: 99%

Dew Point: 52 °F

Location of Lerwick (Shetland Islands)Location

Past Weather in Lerwick (Shetland Islands) — Graph

°F

Lerwick (Shetland Islands) Temperature Yesterday

Maximum temperature yesterday: 57 °F (at 3:00 PM)
Minimum temperature yesterday: 52 °F (at 2:00 AM)
Average temperature yesterday: 54 °F

High & Low Weather Summary for the Past Weeks

 TemperatureHumidityPressure
High60 °F (Jul 20, 12:00 PM)100% (Jul 13, 1:00 AM)30.16 "Hg (Jul 13, 1:00 AM)
Low50 °F (Jul 15, 5:00 AM)74% (Jul 15, 12:00 PM)29.67 "Hg (Jul 27, 7:00 PM)
Average54 °F93%29.90 "Hg
* Reported Jul 12 8:00 PM — Jul 27 8:00 PM, Lerwick (Shetland Islands), Weather by CustomWeather, © 2016

Note: Actual official high and low records may vary slightly from our data, if they occured in-between our weather recording intervals... More about our weather records

Advertising

Lerwick (Shetland Islands) Weather History for the Previous 24 Hours

Scroll right to see more
 ConditionsComfort  
Time TempWeatherWind HumidityBarometerVisibility
8:00 PM
Wed, Jul 27
53 °FDrizzle. Low clouds.10 mph96%29.67 "Hg3 mi
7:00 PM54 °FLow clouds.14 mph91%29.67 "Hg16 mi
6:00 PM55 °FLow clouds.18 mph88%29.67 "Hg19 mi
5:00 PM56 °FLow clouds.18 mph91%29.67 "Hg19 mi
4:00 PM54 °FLight rain. Low clouds.17 mph98%29.68 "Hg5 mi
3:00 PM55 °FLight rain. Low clouds.18 mph94%29.69 "Hg16 mi
2:00 PM54 °FOvercast.17 mph91%29.70 "Hg19 mi
1:00 PM54 °FSprinkles. Low clouds.16 mph91%29.71 "Hg16 mi
12:00 PM54 °FSprinkles. Low clouds.16 mph93%29.72 "Hg19 mi
11:00 AM57 °FPartly sunny.14 mph81%29.71 "Hg22 mi
10:00 AM54 °FLow clouds.14 mph94%29.73 "Hg25 mi
9:00 AM55 °FOvercast.15 mph87%29.74 "Hg25 mi
8:00 AM53 °FLow clouds.9 mph97%29.75 "Hg17 mi
7:00 AM53 °FLow clouds.9 mph98%29.76 "Hg19 mi
6:00 AM52 °FRain. Low clouds.9 mph96%29.77 "Hg14 mi
5:00 AM51 °FLow clouds.8 mph97%29.78 "Hg19 mi
4:00 AM52 °FLow clouds.8 mph97%29.79 "Hg18 mi
3:00 AM52 °FDrizzle. Low clouds.8 mph98%29.80 "Hg13 mi
2:00 AM52 °FLight rain. Low clouds.9 mph97%29.81 "Hg15 mi
1:00 AM51 °FLow clouds.6 mph99%29.82 "Hg16 mi
12:00 AM52 °FDrizzle. Low clouds.12 mph99%29.83 "Hg2 mi
10:00 PM
Tue, Jul 26
53 °FLight rain. Low clouds.17 mph93%29.84 "Hg17 mi
Weather by CustomWeather, © 2016

See weather overviewHow to use our weather pages